User: anonymous   Login
Location: Meanaryar
(48.4161°N, 4.7315°W)
Time: 05:08:12
(UTC+00:00)
Language:

Cosmos 1725 Rocket - Orbit

View from above orbital plane
View from above orbital plane
View from above satellite
View from above satellite

Ground track
Ground track

The orbit data is extracted from the following two-line orbital elements,

1 16494U 86005B   20337.39156387  .00000014  00000-0 -12616-5 0  9997
2 16494  82.9331 211.4558 0018698 305.2678 229.0157 13.76515031751574
Epoch (UTC): 02 December 2020 09:23:51
Eccentricity: 0.0018698
inclination: 82.9331°
perigee height: 962 km
apogee height: 990 km
right ascension of ascending node: 211.4558°
argument of perigee: 305.2678°
revolutions per day: 13.76515031
mean anomaly at epoch: 229.0157°
orbit number at epoch: 75157

The dashed part of the orbit path shows where the satellite is in the earth's shadow,  

DLR